| time (UTC) | temp F | wind direction | speed knots | gust knots | rain 1hr in | rain 24hr in | rain mn in | humidity % | barometer mb |
| 20260505041003 | 46 | 260 | 0.9 | 3.5 | 0.00 | 0.35 | 0.00 | 82 | 1005.3 |
| 20260505040004 | 46 | 238 | 0.9 | 5.2 | 0.00 | 0.36 | 0.00 | 81 | 1005.3 |
| 20260505035004 | 46 | 219 | 0.9 | 3.5 | 0.00 | 0.37 | 0.00 | 81 | 1005.3 |
| 20260505034004 | 46 | 226 | 0.9 | 5.2 | 0.00 | 0.38 | 0.00 | 80 | 1005.3 |
| 20260505033003 | 46 | 247 | 0.9 | 3.5 | 0.00 | 0.38 | 0.00 | 81 | 1004.9 |
| 20260505032003 | 46 | 243 | 0.9 | 5.2 | 0.00 | 0.38 | 0.00 | 80 | 1004.9 |
| 20260505031004 | 46 | 244 | 0.9 | 6.1 | 0.00 | 0.38 | 0.00 | 79 | 1004.9 |
| 20260505030004 | 47 | 261 | 0.9 | 5.2 | 0.00 | 0.38 | 0.00 | 79 | 1004.6 |
| 20260505025004 | 47 | 268 | 1.7 | 7.0 | 0.00 | 0.38 | 0.38 | 78 | 1004.6 |
| 20260505024004 | 47 | 269 | 1.7 | 7.0 | 0.00 | 0.38 | 0.38 | 77 | 1004.3 |
| 20260505023003 | 47 | 269 | 1.7 | 7.0 | 0.00 | 0.38 | 0.38 | 77 | 1004.3 |
| 20260505022003 | 48 | 259 | 1.7 | 5.2 | 0.00 | 0.38 | 0.38 | 76 | 1004.3 |
| 20260505021004 | 48 | 244 | 1.7 | 6.1 | 0.00 | 0.38 | 0.38 | 75 | 1003.9 |
| 20260505020004 | 48 | 267 | 1.7 | 6.1 | 0.00 | 0.38 | 0.38 | 74 | 1003.6 |
| 20260505015003 | 49 | 276 | 1.7 | 7.8 | 0.00 | 0.38 | 0.38 | 73 | 1003.6 |
| 20260505014004 | 49 | 253 | 1.7 | 9.6 | 0.00 | 0.38 | 0.38 | 73 | 1003.6 |
| 20260505013004 | 49 | 243 | 1.7 | 6.1 | 0.00 | 0.39 | 0.38 | 72 | 1003.2 |
| 20260505012003 | 49 | 262 | 1.7 | 7.8 | 0.00 | 0.40 | 0.38 | 71 | 1003.2 |
| 20260505011004 | 49 | 252 | 1.7 | 5.2 | 0.00 | 0.41 | 0.38 | 69 | 1002.9 |
| 20260505010004 | 49 | 262 | 1.7 | 6.1 | 0.00 | 0.43 | 0.38 | 69 | 1002.6 |
| 20260505005004 | 50 | 252 | 1.7 | 6.1 | 0.00 | 0.47 | 0.38 | 68 | 1002.6 |
| 20260505004003 | 50 | 275 | 1.7 | 6.1 | 0.00 | 0.51 | 0.38 | 68 | 1002.6 |
| 20260505003004 | 50 | 277 | 2.6 | 12.2 | 0.00 | 0.56 | 0.38 | 67 | 1002.6 |
| 20260505002004 | 50 | 269 | 1.7 | 7.0 | 0.00 | 0.58 | 0.38 | 68 | 1001.9 |
| 20260505001003 | 50 | 244 | 1.7 | 6.1 | 0.00 | 0.59 | 0.38 | 69 | 1001.9 |
| 20260505000004 | 51 | 259 | 2.6 | 7.0 | 0.00 | 0.61 | 0.38 | 68 | 1001.9 |
| 20260504235003 | 51 | 271 | 1.7 | 7.0 | 0.00 | 0.64 | 0.38 | 68 | 1001.5 |
| 20260504234003 | 51 | 265 | 1.7 | 6.1 | 0.00 | 0.67 | 0.38 | 68 | 1001.5 |
| 20260504233004 | 51 | 271 | 2.6 | 8.7 | 0.00 | 0.70 | 0.38 | 66 | 1001.2 |
| 20260504232003 | 52 | 244 | 2.6 | 9.6 | 0.00 | 0.73 | 0.38 | 66 | 1001.2 |
| 20260504231004 | 51 | 281 | 1.7 | 11.3 | 0.00 | 0.77 | 0.38 | 67 | 1001.2 |
| 20260504230004 | 52 | 245 | 2.6 | 7.0 | 0.00 | 0.79 | 0.38 | 66 | 1001.2 |
| 20260504225004 | 52 | 239 | 1.7 | 7.0 | 0.00 | 0.81 | 0.38 | 66 | 1000.9 |
| 20260504224003 | 52 | 244 | 1.7 | 7.0 | 0.00 | 0.83 | 0.38 | 64 | 1000.5 |
| 20260504223004 | 52 | 237 | 1.7 | 5.2 | 0.00 | 0.84 | 0.38 | 64 | 1000.5 |
| 20260504222004 | 52 | 259 | 1.7 | 8.7 | 0.00 | 0.86 | 0.38 | 64 | 1000.5 |
| 20260504221003 | 53 | 241 | 3.5 | 12.2 | 0.00 | 0.89 | 0.38 | 62 | 1000.2 |
| 20260504220004 | 53 | 240 | 2.6 | 7.8 | 0.00 | 0.90 | 0.38 | 61 | 1000.2 |
| 20260504215003 | 53 | 230 | 2.6 | 8.7 | 0.00 | 0.92 | 0.38 | 60 | 999.8 |
| 20260504214003 | 54 | 245 | 2.6 | 7.8 | 0.00 | 0.93 | 0.38 | 58 | 1000.2 |
| 20260504213004 | 54 | 232 | 2.6 | 9.6 | 0.00 | 0.95 | 0.38 | 57 | 1000.2 |
| 20260504212004 | 54 | 263 | 3.5 | 14.8 | 0.00 | 0.98 | 0.38 | 56 | 1000.2 |
| 20260504211004 | 54 | 242 | 3.5 | 11.3 | 0.00 | 1.01 | 0.38 | 52 | 1000.2 |
| 20260504210004 | 55 | 218 | 3.5 | 12.2 | 0.00 | 1.03 | 0.38 | 49 | 999.8 |
| 20260504205003 | 56 | 240 | 3.5 | 14.8 | 0.00 | 1.05 | 0.38 | 46 | 999.8 |
| 20260504204003 | 57 | 245 | 3.5 | 13.0 | 0.00 | 1.07 | 0.38 | 44 | 999.5 |
| 20260504203003 | 57 | 252 | 1.7 | 11.3 | 0.00 | 1.08 | 0.38 | 43 | 999.5 |
| 20260504202004 | 57 | 266 | 3.5 | 8.7 | 0.00 | 1.10 | 0.38 | 37 | 999.5 |
| 20260504201004 | 58 | 282 | 4.3 | 13.0 | 0.00 | 1.12 | 0.38 | 35 | 999.2 |
| 20260504200004 | 58 | 276 | 4.3 | 14.8 | 0.00 | 1.16 | 0.38 | 34 | 999.2 |
| 20260504195003 | 59 | 263 | 3.5 | 11.3 | 0.00 | 1.20 | 0.38 | 32 | 998.8 |
| 20260504194003 | 59 | 280 | 4.3 | 12.2 | 0.00 | 1.24 | 0.38 | 32 | 999.2 |
| 20260504193003 | 61 | 283 | 5.2 | 15.6 | 0.00 | 1.27 | 0.38 | 30 | 998.8 |
| 20260504192003 | 62 | 293 | 4.3 | 16.5 | 0.00 | 1.32 | 0.38 | 29 | 998.8 |
| 20260504191003 | 61 | 283 | 5.2 | 13.9 | 0.00 | 1.38 | 0.38 | 30 | 998.8 |
| 20260504190004 | 61 | 284 | 4.3 | 18.2 | 0.00 | 1.45 | 0.38 | 29 | 998.8 |
| 20260504185003 | 61 | 275 | 4.3 | 14.8 | 0.00 | 1.49 | 0.38 | 28 | 998.8 |
| 20260504184003 | 61 | 278 | 4.3 | 15.6 | 0.00 | 1.54 | 0.38 | 29 | 998.8 |
| 20260504183003 | 60 | 290 | 5.2 | 15.6 | 0.00 | 1.58 | 0.38 | 35 | 998.8 |
| 20260504182003 | 59 | 275 | 5.2 | 15.6 | 0.00 | 1.61 | 0.38 | 31 | 998.8 |
| 20260504181003 | 59 | 277 | 5.2 | 15.6 | 0.00 | 1.65 | 0.38 | 32 | 998.8 |
| 20260504180003 | 58 | 284 | 4.3 | 18.2 | 0.00 | 1.68 | 0.38 | 33 | 998.8 |
| 20260504175003 | 58 | 277 | 6.1 | 16.5 | 0.00 | 1.71 | 0.38 | 33 | 998.8 |
| 20260504174003 | 58 | 271 | 5.2 | 14.8 | 0.00 | 1.74 | 0.38 | 34 | 998.8 |
| 20260504173004 | 58 | 278 | 5.2 | 13.9 | 0.00 | 1.76 | 0.38 | 34 | 998.8 |
| 20260504172003 | 57 | 238 | 3.5 | 11.3 | 0.00 | 1.79 | 0.38 | 35 | 998.8 |
| 20260504171003 | 57 | 252 | 5.2 | 13.9 | 0.00 | 1.81 | 0.38 | 36 | 999.2 |
| 20260504151003 | 51 | 274 | 4.3 | 13.0 | 0.00 | 1.85 | 0.38 | 57 | 999.2 |
| 20260504141003 | 48 | 273 | 4.3 | 15.6 | 0.00 | 1.86 | 0.38 | 68 | 998.5 |
| 20260504082004 | 38 | 281 | 3.5 | 7.8 | 0.04 | 1.86 | 0.37 | 98 | 994.4 |
| 20260504081003 | 38 | 283 | 4.3 | 15.6 | 0.04 | 1.85 | 0.36 | 98 | 994.0 |
| 20260504050004 | 34 | 285 | 4.3 | 13.9 | 0.08 | 1.59 | 0.10 | 98 | 991.7 |
| 20260504045003 | 34 | 303 | 4.3 | 13.0 | 0.08 | 1.58 | 0.09 | 98 | 991.3 |
| 20260504044003 | 34 | 283 | 4.3 | 11.3 | 0.07 | 1.56 | 0.07 | 99 | 991.3 |
| 20260504043003 | 34 | 293 | 4.3 | 13.0 | 0.06 | 1.55 | 0.06 | 99 | 991.3 |
| 20260504042003 | 34 | 293 | 3.5 | 8.7 | 0.05 | 1.54 | 0.05 | 99 | 991.3 |